Regional Weather Roundup
Issued by NWS Raleigh/Durham, NC

Home | Current Version | Previous Version | Text Only | Print | Product List | Glossary On
Versions: 1 2 3 4 5 6 7 8 9 10 11 12 13 14 15 16 17 18 19 20 21 22 23 24 25 26 27 28 29 30 31 32 33 34 35 36 37 38 39 40 41 42 43 44 45 46 47 48 49 50
000
ASUS42 KRAH 251210
RWRRAH
NORTH CAROLINA WEATHER ROUNDUP
NATIONAL WEATHER SERVICE RALEIGH NC
800 AM EDT MON MAY 25 2015

NOTE: "FAIR" INDICATES FEW OR NO CLOUDS BELOW 12,000 FEET WITH NO
SIGNIFICANT WEATHER AND/OR OBSTRUCTIONS TO VISIBILITY.

NCZ001-053-055-056-065-067-251300-
WESTERN NORTH CAROLINA

CITY           SKY/WX    TMP DP  RH WIND       PRES   REMARKS
ASHEVILLE      PTSUNNY   62  56  80 S3        30.36S
JEFFERSON      PTSUNNY   60  53  77 SE5       30.37R
MORGANTON      MOSUNNY   62  59  88 CALM      30.39R
HICKORY        SUNNY     63  57  81 S3        30.34R
RUTHERFORDTON  CLOUDY    60  57  91 CALM      30.35S
MOUNT AIRY     SUNNY     63  57  82 SE3       30.36S
BOONE          CLOUDY    58  53  84 CALM      30.38S
$$

NCZ021-022-025-041-071-084-088-251300-
CENTRAL NORTH CAROLINA

CITY           SKY/WX    TMP DP  RH WIND       PRES   REMARKS
CHARLOTTE      MOSUNNY   66  56  70 CALM      30.35R
GREENSBORO     MOSUNNY   64  57  78 SW8       30.34R
WINSTON-SALEM  SUNNY     65  56  72 SW6       30.36R
RALEIGH-DURHAM PTSUNNY   66  59  78 SW6       30.34F
FORT BRAGG     MOSUNNY   65  59  79 SE1       30.34R
FAYETTEVILLE   MOSUNNY   64  60  87 CALM      30.34S
BURLINGTON     SUNNY     63  57  81 SW3       30.34S
LAURINBURG     SUNNY     63  57  81 CALM      30.35R
$$

NCZ011-015-027-028-043-044-047-080-103-251300-
NORTHEASTERN NORTH CAROLINA

CITY           SKY/WX    TMP DP  RH WIND       PRES   REMARKS
ROCKY MT-WILSO SUNNY     67  62  84 CALM      30.36R
GREENVILLE     SUNNY     68  61  77 CALM      30.37R
WASHINGTON     SUNNY     68  62  83 CALM      30.37R
ELIZABETH CITY SUNNY     69  63  81 SW3       30.36R
MANTEO         SUNNY     69  62  77 CALM      30.37S
CAPE HATTERAS  SUNNY     73  57  57 S6        30.37R
$$

NCZ078-087-090-091-093-098-101-251300-
SOUTHEASTERN NORTH CAROLINA

CITY           SKY/WX    TMP DP  RH WIND       PRES   REMARKS
LUMBERTON      SUNNY     66  60  81 CALM      30.34R
GOLDSBORO      MOSUNNY   68  61  80 CALM      30.34R
KINSTON        MOSUNNY   66  61  82 CALM      30.37R
KENANSVILLE    MOSUNNY   64  62  90 CALM      30.37R
NEW BERN       SUNNY     70  60  70 CALM      30.37R
CHERRY POINT   SUNNY     68  61  78 CALM      30.37R
BEAUFORT       SUNNY     72  59  63 SE6       30.36R
JACKSONVILLE   MOSUNNY   69  64  84 CALM      30.35R
WILMINGTON     SUNNY     68  62  81 CALM      30.34S
$$



USA.gov is the U.S. government's official web portal to all federal, state and local government web resources and services.